Location: Cointrin
(46.2167°N, 6.1167°E)
Time: 20:08:16
(UTC+00:00)

Cosmos 1825 - Pass Details

Date: 08 February 2023
Orbit: 481 x 488 km, 82.5° (Epoch: 21 March)

Event Time Altitude Azimuth Distance (km) Brightness Sun altitude
Rises 17:51:53 0° 203° (SSW) 2,569 6.2 -11.1°
Reaches altitude 10° 17:54:03 10° 210° (SSW) 1,693 5.4 -11.4°
Maximum altitude 17:57:36 42° 283° (WNW) 716 3.4 -12.0°
Drops below altitude 10° 18:01:10 10° 356° (N) 1,706 4.8 -12.7°
Sets 18:03:23 0° 3° (N) 2,594 5.6 -13.0°
